Location: Invercargill
(46.4000°S, 168.3500°E)
Time: 10:44:35
(UTC+12:00)

deb Chang Zheng 4 - Pass Details

Date: 14 May 2021
Orbit: 597 x 622 km, 98.6° (Epoch: 15 June)

Event Time Altitude Azimuth Distance (km) Brightness Sun altitude
Rises 18:51:26 0° 167° (SSE) 2,933 6.8 -14.9°
Reaches altitude 10° 18:53:39 10° 167° (SSE) 2,022 6.0 -15.2°
Maximum altitude 18:58:04 85° 256° (WSW) 640 3.6 -16.0°
Drops below altitude 10° 19:02:26 10° 342° (NNW) 2,004 6.5 -16.7°
Sets 19:04:36 0° 342° (NNW) 2,904 7.4 -17.1°
